GSAT0212 (GALILEO 16) (41860 NORAD) Tracking and Keplerian Element Data

This shows tracking and keplerian element data for the satellite.

Feedback or suggestion? Click here.




ElementValue
Catalog41860
NameGSAT0212 (GALILEO 16)
Epoch Orbit5115
Epoch Day34.59014123
Epoch Year2025
RAAN114.8957
Inclination55.2001
Eccentricity0.0002431
Argument of Perigee326.6433
Mean Anonmoly33.3892
Mean Motion1.70474727
Decay Rate-8E-08
L11 41860U 16069B 25034.59014123 -.00000008 00000+0 00000+0 0 9997
L22 41860 55.2001 114.8957 0002431 326.6433 33.3892 1.70474727 51155



Live tracking and technical data element details for GSAT0212 (GALILEO 16) (NORAD 41860). GSAT0212 (GALILEO 16) can be tracked NOW for your location showing map with azimuth and elevation plus other details from your city location.







IsCatalogInMostPopularTable: catalog: 41860, numindb: 801
Update: records affected: 1



GetName: 41860 GSAT0212 (GALILEO 16)

Hit Count: updated at: Sat, 17 May 2025 05:59:04 GMT